This is the latest recevied weather packets stored in our database for station/object SR2CPA-13. If no packets are shown the sender has not sent any weather packets the latest 10 day(s).
| Time | Temp. | Humidity | Pressure | Rain* | Wind** | Luminosity | Snow |
|---|---|---|---|---|---|---|---|
| 1777691751 | 4.44° C | 99% | 0 hPa | 0 mm | - | - | - |
| 1777691151 | 3.89° C | 99% | 0 hPa | 0 mm | - | - | - |
| 1777690531 | 4.44° C | 99% | 0 hPa | 0 mm | - | - | - |
| 1777689911 | 3.89° C | 99% | 0 hPa | 0 mm | - | - | - |
| 1777689311 | 3.89° C | 99% | 0 hPa | 0 mm | - | - | - |
| 1777688711 | 3.89° C | 99% | 0 hPa | 0 mm | - | - | - |
| 1777688111 | 3.89° C | 99% | 0 hPa | 0 mm | - | - | - |
| 1777687511 | 4.44° C | 99% | 0 hPa | 0 mm | - | - | - |
| 1777686911 | 4.44° C | 99% | 0 hPa | 0 mm | - | - | - |
| 1777686312 | 4.44° C | 99% | 0 hPa | 0 mm | - | - | - |
| 1777685711 | 5° C | 99% | 0 hPa | 0 mm | - | - | - |
| 1777685091 | 5° C | 99% | 0 hPa | 0 mm | - | - | - |
| 1777684491 | 5.56° C | 99% | 0 hPa | 0 mm | - | - | - |
| 1777683891 | 5° C | 99% | 0 hPa | 0 mm | - | - | - |
| 1777683271 | 5° C | 99% | 0 hPa | 0 mm | - | - | - |
| 1777682671 | 5.56° C | 99% | 0 hPa | 0 mm | - | - | - |
| 1777682051 | 5° C | 99% | 0 hPa | 0 mm | - | - | - |
| 1777681451 | 5° C | 99% | 0 hPa | 0 mm | - | - | - |
| 1777680851 | 5.56° C | 99% | 0 hPa | 0 mm | - | - | - |
| 1777680231 | 6.67° C | 95% | 0 hPa | 0 mm | - | - | - |
| 1777679631 | 7.22° C | 85% | 0 hPa | 0 mm | - | - | - |
| 1777679030 | 7.78° C | 82% | 0 hPa | 0 mm | - | - | - |
| 1777678411 | 8.33° C | 77% | 0 hPa | 0 mm | - | - | - |
| 1777677811 | 8.33° C | 80% | 0 hPa | 0 mm | - | - | - |
| 1777677191 | 7.78° C | 83% | 0 hPa | 0 mm | - | - | - |
* Rain latest hour (hover to see other rain measurements)
** Current wind speed in m/s (hover to see current wind gust speed)